Starlink 30358

operational
NORAD ID: 57879 Int'l Des: 2023-144 Owner: SPXS Country: US Constellation: starlink
LEOCIRCULAR

Über Starlink 30358

Beschreibung wird geladen...

Live-Position

3D-Globus wird geladen...

Nächste Überflüge

Höhenverlauf

Altitude vs Time

uPlot chart will show altitude changes over time

Zweizeiliger Elementsatz

1 57879U 23144R 25259.40237989 .00000489 00000-0 51231-4 0 9992
2 57879 43.0030 154.4721 0001178 266.4896 93.5811 15.02540047111390
Epoch: 16. Sept. 2025 • Age: 16 hours

Aktueller Status

Höhe 562.3 km
Geschwindigkeit 7.58 km/s
Subsatellitenpunkt -17.25°S, 112.83°E
Startdatum 16. Sept. 2023
Alter 2 years
Typ internet

Technische Details

Klassifizierung Payload
Masse 730.00 kg
Trockenmasse 700.00 kg
Gesamtmasse 730.00 kg
Länge 0.30 m
Durchmesser 4.10 m
Spannweite 29.00 m
Form Box + pan
Hersteller SPXS
Bus-Typ Starlink V2M
Phasenstatus In Orbit
Besitzer/Staat SPXS/US

Große Konstellationen

Loading constellations...